Temperature
7 7 7 7 7 7 8 8 8 8 8 8 8 8 8 9 9 9 9 9 9 9 9 9 9 9 9 9 9 9 10 10 10 9 9 10 10 10 10 10 10 10 10
6 6 6 6 7 7 7 7 7 7 8 8 8 8 8 8 8 8 8 8 8 8 9 9 9 9 9 9 9 9 9 9 9 9 9 9 9 9 9 9 9 10 10
6 6 6 6 6 6 6 6 7 7 7 7 7 7 7 7 7 7 7 8 8 8 8 8 8 8 8 8 8 8 8 8 8 8 8 9 9 9 9 9 9 9 9
5 5 5 5 5 5 6 6 6 6 6 6 6 6 6 7 7 7 7 7 7 7 7 7 8 8 8 8 8 8 8 8 8 8 8 8 8 8 8 8 8 8 8
5 5 5 5 5 5 5 5 5 5 5 6 6 6 6 6 6 6 6 6 6 6 6 7 7 7 7 7 7 7 7 7 7 7 7 7 7 7 7 7 7 8 8
4 4 4 4 4 4 4 4 4 4 5 5 5 5 5 5 5 5 5 5 5 5 6 6 6 6 6 7 7 7 7 6 6 6 6 6 6 7 7 7 7 7 7
4 4 4 3 3 3 3 3 3 4 4 4 4 4 4 4 4 4 4 4 4 5 5 5 5 5 6 6 6 6 6 6 6 6 5 5 6 6 6 6 6 6 6
3 3 3 3 3 3 3 3 3 3 3 3 3 2 3 3 3 3 3 3 4 4 4 4 4 4 5 5 5 5 5 5 5 5 5 5 5 5 5 5 5 6 6
3 2 2 2 2 2 2 2 2 2 2 2 2 2 2 2 2 2 3 3 3 3 3 3 3 3 3 4 4 4 4 4 4 4 4 4 4 4 4 5 5 5 5
2 2 2 2 2 2 1 1 1 1 1 1 1 1 1 1 0 1 1 2 2 2 2 2 2 3 3 3 3 3 3 4 4 3 3 3 3 3 4 4 4 4 4
1 1 1 1 1 1 1 1 1 1 0 0 0 0 0 0 -0 -1 -0 0 1 1 1 1 1 2 2 2 2 2 3 3 3 3 3 3 3 3 3 3 3 3 4
1 1 1 1 0 0 0 0 0 -0 -0 -0 -0 -0 -1 -1 -1 -1 -1 -1 -1 -0 0 0 0 1 1 1 1 1 1 2 2 2 2 2 2 2 2 2 2 3 3
0 0 0 0 -0 -0 -0 -0 -1 -1 -1 -1 -1 -1 -1 -1 -2 -2 -2 -2 -2 -2 -1 -1 -1 -0 0 -0 0 0 1 1 1 1 1 1 1 2 2 2 2 2 2
-0 -0 -0 -1 -1 -1 -1 -1 -1 -1 -1 -2 -2 -2 -2 -2 -2 -2 -3 -3 -3 -3 -2 -2 -1 -1 -1 -1 -1 -1 -0 -0 0 0 0 1 1 1 1 1 1 1 1
-1 -1 -1 -1 -1 -1 -2 -2 -2 -2 -2 -2 -3 -3 -3 -3 -3 -3 -3 -4 -4 -4 -3 -3 -2 -2 -2 -2 -2 -2 -1 -1 -1 -1 -1 -0 0 0 0 0 0 0 0
-1 -2 -2 -2 -2 -2 -2 -2 -2 -3 -3 -3 -3 -3 -3 -4 -4 -4 -4 -4 -4 -5 -5 -4 -4 -3 -3 -2 -2 -2 -2 -2 -2 -1 -1 -1 -1 -1 -1 -1 -0 -0 -0
-2 -2 -2 -2 -2 -3 -3 -3 -3 -3 -3 -4 -4 -4 -4 -4 -4 -5 -5 -5 -5 -5 -5 -4 -4 -4 -4 -3 -3 -3 -3 -3 -2 -2 -2 -2 -2 -2 -1 -1 -1 -1 -1
-2 -3 -3 -3 -3 -3 -3 -4 -4 -4 -4 -4 -4 -4 -4 -5 -5 -5 -5 -5 -5 -5 -5 -5 -5 -4 -4 -4 -4 -4 -3 -3 -3 -3 -3 -2 -2 -2 -2 -2 -2 -2 -1
-3 -3 -3 -4 -4 -4 -4 -4 -4 -4 -5 -5 -5 -5 -5 -5 -5 -6 -6 -6 -6 -6 -6 -6 -5 -5 -5 -5 -4 -4 -4 -4 -4 -4 -3 -3 -3 -3 -3 -3 -2 -2 -2
-4 -4 -4 -4 -4 -4 -5 -5 -5 -5 -5 -5 -5 -5 -5 -6 -6 -6 -6 -6 -6 -6 -6 -6 -6 -6 -5 -5 -5 -5 -5 -5 -5 -4 -4 -4 -4 -4 -4 -3 -3 -3 -3
-4 -4 -5 -5 -5 -5 -5 -5 -6 -6 -6 -6 -6 -6 -6 -6 -6 -6 -7 -7 -7 -7 -7 -7 -6 -6 -6 -6 -6 -6 -6 -6 -5 -5 -5 -5 -5 -5 -5 -4 -4 -4 -4
-5 -5 -5 -5 -5 -5 -6 -6 -6 -6 -6 -7 -6 -6 -7 -7 -7 -7 -7 -7 -7 -7 -7 -7 -7 -7 -7 -7 -7 -7 -7 -7 -6 -6 -6 -6 -6 -5 -5 -5 -5 -5 -5
-5 -5 -6 -6 -6 -6 -6 -6 -7 -7 -7 -7 -7 -7 -7 -7 -7 -7 -7 -7 -7 -7 -8 -8 -8 -7 -7 -7 -7 -7 -7 -7 -7 -7 -7 -7 -6 -6 -6 -6 -5 -5 -5
-6 -6 -6 -6 -6 -6 -7 -7 -7 -7 -8 -8 -8 -8 -8 -8 -8 -8 -8 -8 -8 -8 -8 -8 -8 -8 -8 -8 -8 -8 -8 -8 -7 -7 -7 -7 -7 -7 -6 -6 -6 -6 -6
-7 -7 -7 -7 -7 -7 -7 -7 -8 -8 -8 -8 -8 -8 -8 -8 -8 -9 -9 -9 -9 -8 -8 -8 -8 -8 -8 -8 -8 -8 -8 -8 -8 -8 -8 -8 -8 -8 -7 -7 -6 -6 -6
-7 -7 -7 -7 -8 -8 -8 -8 -8 -9 -9 -9 -8 -9 -9 -9 -9 -9 -9 -9 -9 -9 -9 -9 -9 -9 -9 -9 -9 -9 -9 -9 -9 -9 -8 -8 -8 -9 -8 -7 -7 -7 -7
Wind_Speed
4 4 5 5 5 5 5 5 5 5 5 6 6 6 5 5 5 5 6 9 9 9 8 8 7 6 6 6 6 6 6 6 6 6 6 6 7 7 6 6 7 6 5
4 4 4 5 5 5 5 5 5 4 4 4 5 5 5 4 4 4 4 5 7 8 8 8 7 6 5 5 5 5 5 4 4 4 5 5 5 5 6 6 5 6 5
4 3 3 4 4 5 5 5 5 4 4 4 4 5 5 4 4 4 4 4 4 6 7 8 8 7 5 4 4 4 3 3 3 3 3 4 4 3 4 5 5 5 5
4 3 3 3 4 3 4 4 4 3 3 3 3 3 4 3 3 4 4 4 4 4 6 8 8 8 6 5 4 4 3 3 2 2 2 3 3 3 3 3 4 5 4
4 3 3 3 3 3 3 3 3 3 3 3 3 3 3 3 2 3 4 5 5 5 5 6 7 8 8 6 5 4 4 3 3 2 2 2 2 2 2 3 3 3 4
4 4 3 3 3 3 3 3 3 3 2 2 2 2 2 1 2 2 3 3 4 5 5 6 5 6 6 6 7 6 5 4 4 3 2 2 3 3 3 3 3 3 3
3 3 3 3 3 2 3 3 3 3 3 3 2 2 1 1 1 2 2 2 3 4 5 5 5 5 5 5 6 7 6 5 5 4 4 4 3 4 4 4 4 5 5
3 2 3 2 2 2 2 2 2 2 2 3 2 1 1 1 1 1 2 3 3 4 4 5 5 5 6 4 6 7 7 7 5 5 4 5 4 5 5 5 6 6 6
3 2 2 2 2 2 1 2 2 2 2 3 3 2 1 1 2 1 2 2 3 4 4 5 5 5 6 5 5 6 8 8 8 6 6 6 6 6 6 7 7 7 7
2 2 2 2 2 1 1 2 2 2 2 2 2 2 2 2 2 2 2 2 3 4 4 4 5 5 5 5 6 7 8 9 9 8 8 8 7 7 7 8 8 8 8
2 2 2 2 1 1 1 2 2 2 1 2 2 2 1 2 2 3 4 4 4 4 4 5 4 4 5 6 6 8 9 9 10 10 10 10 10 9 9 9 9 8 8
1 2 1 1 1 1 1 1 1 1 1 2 2 2 2 2 2 3 4 5 5 5 5 4 4 4 5 6 6 8 9 9 10 10 11 11 11 11 11 10 10 10 10
1 1 1 0 0 0 0 1 1 1 2 2 2 2 2 2 3 3 4 5 6 5 5 4 4 4 4 6 6 8 8 9 10 11 11 11 12 12 12 12 12 12 12
2 2 1 1 0 0 0 1 1 2 2 2 3 3 3 3 3 3 4 4 5 5 5 5 4 4 4 6 8 9 8 9 10 11 11 12 12 13 13 13 13 13 13
2 2 2 1 1 1 1 1 1 2 2 2 3 3 3 3 3 4 4 4 5 5 6 5 4 4 6 7 8 8 9 9 11 12 12 12 13 13 14 14 14 14 14
3 3 2 1 1 1 1 1 1 2 2 3 3 3 4 3 4 4 4 5 5 6 7 6 7 8 8 8 9 9 10 11 11 12 13 13 13 13 14 14 14 14 14
3 3 2 2 1 1 2 2 2 2 3 3 3 3 4 4 4 4 5 5 6 6 8 8 8 8 9 8 8 10 10 10 10 12 13 13 13 13 14 15 14 15 15
3 3 2 2 2 2 2 2 3 3 3 4 4 4 4 4 5 5 5 6 6 7 8 10 9 8 9 9 9 9 9 9 10 12 13 14 14 14 15 15 15 15 15
3 3 2 2 2 2 2 3 3 3 4 4 4 4 5 5 6 5 6 6 6 6 7 8 9 8 8 8 8 8 9 9 10 11 12 13 13 14 15 16 16 16 15
3 3 2 2 2 2 3 3 3 4 4 4 5 5 5 6 6 7 6 7 7 7 7 8 8 8 8 8 8 8 8 8 8 9 11 12 13 14 15 16 16 17 17
2 2 2 2 2 2 2 3 4 4 5 5 5 5 6 7 8 8 7 7 7 7 7 8 8 8 8 7 8 8 9 8 9 8 8 9 10 11 12 14 15 16 17
2 2 2 2 2 2 3 5 5 5 5 5 6 6 6 7 8 9 10 11 10 9 9 9 9 9 10 9 9 9 9 9 9 7 8 10 9 10 11 12 15 17 18
2 2 2 2 2 3 4 5 6 5 5 6 6 6 5 6 8 7 9 10 10 12 12 11 11 11 11 10 10 11 10 11 11 9 9 11 10 11 11 14 18 19 19
2 2 2 2 3 3 5 6 6 6 6 6 6 7 7 7 7 8 8 8 9 9 10 10 10 11 11 11 10 11 11 11 12 9 9 10 10 11 11 13 17 18 18
2 2 2 2 3 3 4 5 6 5 5 6 6 7 7 7 9 10 8 9 9 9 10 12 13 14 15 15 13 9 9 9 10 9 8 9 10 10 11 11 13 16 17
2 2 2 2 3 3 4 5 6 4 5 5 6 6 8 9 10 11 9 8 9 9 9 9 10 12 12 12 12 10 9 9 9 8 7 7 8 8 8 8 9 10 13
Wind_Direction
50 49 46 39 35 31 30 30 33 37 40 38 39 41 40 38 42 43 43 42 37 34 34 34 34 43 58 58 62 64 61 60 57 54 51 54 54 51 53 51 47 45 41
55 51 48 41 36 30 29 30 30 31 36 37 39 40 38 33 42 45 40 42 42 35 30 27 25 26 42 45 48 52 52 54 51 46 42 43 45 48 48 42 39 37 30
60 58 53 45 37 32 33 36 33 34 39 38 37 38 38 31 38 44 40 35 35 36 28 23 19 19 24 33 31 33 36 42 40 28 25 22 16 31 37 33 31 30 29
61 63 58 49 42 41 40 37 29 25 29 28 25 28 30 29 38 44 45 37 32 26 30 27 22 18 15 19 13 10 11 17 19 9 3 3 6 7 15 24 23 21 17
66 68 61 53 48 47 43 37 31 21 28 25 18 18 14 13 40 52 51 44 39 31 24 22 19 16 14 11 2 355 345 345 348 342 348 353 343 335 340 345 348 354 2
72 72 70 57 48 48 45 40 35 28 28 26 15 17 4 9 43 49 44 45 38 27 18 11 6 6 10 8 4 347 336 328 328 325 319 328 325 317 303 306 312 317 326
76 74 74 67 54 47 45 41 41 40 34 23 14 10 2 38 62 39 39 32 27 18 12 8 359 357 357 3 5 359 339 325 315 314 309 303 307 314 306 296 296 300 300
73 75 79 70 61 54 50 45 38 30 18 4 345 306 290 232 67 4 9 5 1 2 1 360 358 356 353 349 355 357 353 343 324 315 310 305 296 295 297 295 290 289 287
76 70 76 75 63 51 44 26 18 20 4 2 356 326 298 297 329 289 319 339 351 349 347 347 342 343 346 346 346 360 358 352 343 325 308 299 295 289 288 289 290 288 286
91 80 74 71 65 46 33 13 5 354 346 338 346 354 339 326 291 298 286 307 329 328 329 329 327 335 339 338 344 349 348 342 336 332 320 305 297 292 288 287 286 286 286
100 90 77 68 60 39 18 8 0 349 327 311 318 318 319 317 288 273 287 304 309 309 316 312 317 329 334 333 338 345 342 331 325 321 319 314 300 291 287 286 285 284 284
115 104 88 69 59 40 9 353 347 334 320 311 306 302 290 286 298 291 284 298 303 304 303 299 305 316 323 325 331 338 334 329 320 315 312 312 309 299 291 286 284 282 280
157 146 118 113 19 11 328 317 315 305 302 295 292 291 287 279 281 281 282 291 295 300 289 282 292 299 311 318 320 327 321 322 322 313 308 307 310 307 305 291 282 279 278
171 169 175 194 246 272 282 282 285 286 284 282 283 281 283 280 276 276 279 288 293 291 285 288 287 285 306 310 311 314 307 309 312 311 309 308 308 306 304 301 289 282 279
165 169 175 184 207 250 267 266 269 283 283 279 278 278 277 280 275 270 268 269 274 284 287 295 298 291 304 301 300 300 299 301 302 301 301 302 302 301 298 296 291 285 280
168 174 185 190 209 236 251 264 275 281 280 280 280 277 275 277 277 271 268 267 263 267 275 283 291 298 295 291 292 292 290 295 290 290 294 297 296 296 295 294 291 288 283
172 178 189 197 214 235 247 254 260 268 272 277 279 278 285 286 279 274 272 267 265 267 273 283 286 292 291 287 292 290 287 288 286 286 289 290 292 293 292 290 289 286 283
178 185 191 198 211 233 244 249 258 263 268 274 278 282 286 289 286 279 272 270 270 272 275 283 289 291 289 287 286 287 290 287 285 286 286 286 287 288 288 287 286 286 285
181 184 191 202 219 236 247 255 261 266 269 273 277 281 286 286 285 285 282 276 274 276 277 281 287 291 288 288 287 285 285 287 287 285 284 283 282 285 286 284 282 282 283
186 192 206 220 234 243 248 256 263 268 271 274 277 279 281 280 282 284 283 282 281 280 278 278 281 286 287 289 289 285 286 286 288 290 285 284 284 284 281 281 280 279 279
190 196 211 227 239 245 251 263 271 274 276 278 279 279 278 281 285 284 282 283 283 280 280 280 284 286 286 287 287 287 284 286 284 284 285 284 284 281 279 276 275 276 276
188 196 210 225 242 255 267 274 281 279 279 279 281 283 282 277 280 282 283 284 283 281 282 282 284 283 285 288 293 288 284 286 285 283 285 284 283 278 277 275 275 276 277
195 206 222 235 254 270 273 274 277 280 277 278 279 282 284 284 284 284 283 282 280 279 277 278 279 281 283 286 288 287 285 283 285 288 286 283 281 277 277 274 276 275 275
205 217 233 246 263 277 281 279 279 277 275 276 278 278 281 284 283 286 286 284 284 281 280 278 279 283 286 286 281 283 285 287 288 280 278 279 281 280 280 276 274 273 273
214 229 245 254 267 281 283 285 283 279 276 279 280 279 281 283 287 289 288 288 288 288 287 283 284 285 288 290 288 284 282 283 285 286 281 280 284 287 284 278 273 271 274
223 237 253 263 270 279 286 288 286 279 279 283 284 281 277 282 289 291 288 288 288 292 294 294 289 287 287 287 284 277 276 275 282 287 280 281 287 296 288 279 280 280 279
Height
1534 1534 1534 1534 1534 1534 1534 1534 1533 1533 1533 1533 1533 1534 1534 1534 1534 1534 1534 1535 1535 1535 1535 1535 1536 1536 1536 1536 1536 1536 1536 1536 1536 1536 1536 1536 1536 1537 1537 1537 1537 1537 1538
1534 1533 1533 1533 1533 1533 1532 1532 1532 1532 1532 1532 1532 1532 1532 1532 1532 1532 1533 1533 1533 1533 1534 1534 1534 1534 1534 1534 1534 1534 1534 1534 1535 1535 1535 1535 1535 1535 1535 1536 1536 1536 1536
1532 1532 1532 1532 1532 1531 1531 1531 1531 1531 1531 1530 1530 1530 1530 1530 1530 1531 1531 1531 1531 1531 1531 1532 1532 1532 1532 1531 1532 1532 1532 1532 1533 1533 1533 1533 1533 1533 1533 1534 1534 1534 1534
1531 1531 1531 1531 1530 1530 1530 1530 1530 1529 1529 1529 1528 1528 1528 1528 1528 1529 1529 1529 1529 1529 1529 1529 1529 1529 1530 1529 1529 1530 1530 1530 1530 1531 1531 1531 1531 1531 1531 1532 1532 1532 1532
1530 1530 1530 1529 1529 1529 1528 1528 1528 1528 1527 1527 1526 1526 1526 1526 1526 1526 1527 1527 1527 1527 1526 1526 1526 1527 1527 1527 1527 1527 1527 1528 1528 1528 1528 1529 1529 1529 1529 1529 1529 1530 1530
1528 1528 1528 1528 1528 1527 1527 1526 1526 1526 1526 1525 1525 1525 1525 1525 1524 1524 1524 1524 1524 1524 1524 1524 1524 1524 1524 1524 1524 1524 1524 1525 1525 1525 1526 1526 1526 1526 1526 1527 1527 1527 1527
1527 1527 1527 1527 1527 1526 1526 1525 1524 1524 1524 1524 1524 1523 1523 1523 1522 1522 1522 1522 1522 1522 1522 1522 1521 1521 1521 1521 1521 1521 1521 1521 1522 1522 1523 1523 1523 1523 1523 1523 1524 1524 1524
1525 1526 1525 1525 1525 1525 1524 1524 1523 1522 1522 1523 1523 1523 1523 1523 1521 1520 1520 1520 1520 1520 1520 1519 1519 1518 1517 1517 1517 1517 1517 1518 1518 1519 1519 1520 1520 1520 1520 1520 1521 1521 1521
1524 1524 1524 1524 1523 1523 1523 1522 1522 1521 1521 1522 1522 1523 1522 1521 1519 1519 1518 1518 1518 1518 1517 1516 1516 1515 1515 1514 1514 1513 1513 1513 1514 1515 1516 1516 1516 1516 1516 1517 1517 1517 1517
1522 1522 1522 1522 1522 1521 1521 1521 1520 1520 1520 1520 1520 1520 1520 1519 1519 1517 1516 1516 1515 1515 1514 1514 1513 1512 1512 1511 1510 1510 1510 1510 1510 1511 1511 1512 1512 1512 1512 1513 1512 1512 1513
1520 1520 1520 1520 1520 1520 1519 1519 1518 1518 1518 1518 1518 1518 1517 1517 1517 1517 1515 1514 1513 1512 1511 1511 1510 1509 1509 1508 1507 1506 1506 1506 1506 1506 1507 1507 1508 1508 1507 1508 1507 1508 1508
1517 1518 1518 1518 1518 1518 1517 1517 1516 1516 1516 1516 1515 1515 1515 1515 1515 1514 1513 1511 1510 1509 1508 1507 1507 1506 1505 1504 1504 1503 1502 1502 1502 1502 1502 1502 1502 1503 1502 1502 1502 1503 1503
1515 1515 1516 1516 1516 1515 1515 1514 1514 1514 1513 1513 1513 1513 1512 1512 1512 1512 1511 1509 1507 1505 1504 1504 1503 1502 1502 1501 1500 1499 1499 1498 1497 1497 1497 1497 1497 1497 1497 1497 1497 1497 1497
1512 1513 1513 1513 1513 1513 1512 1512 1511 1511 1510 1510 1510 1510 1509 1509 1509 1508 1508 1507 1505 1503 1502 1501 1500 1499 1498 1497 1496 1495 1494 1494 1493 1492 1492 1492 1491 1491 1491 1491 1491 1491 1492
1509 1510 1510 1510 1510 1510 1509 1509 1508 1508 1507 1507 1507 1506 1506 1506 1505 1505 1505 1504 1504 1501 1498 1497 1496 1495 1494 1493 1492 1491 1490 1489 1488 1488 1487 1486 1486 1485 1485 1485 1485 1485 1485
1506 1507 1507 1507 1507 1507 1506 1506 1505 1505 1504 1504 1503 1503 1502 1502 1502 1501 1501 1500 1500 1499 1496 1493 1493 1491 1490 1489 1488 1487 1486 1485 1484 1483 1482 1481 1480 1480 1480 1479 1479 1479 1479
1503 1504 1504 1504 1504 1503 1503 1503 1502 1502 1501 1501 1500 1499 1499 1498 1498 1497 1497 1496 1496 1495 1492 1489 1489 1487 1486 1485 1483 1482 1481 1480 1479 1478 1477 1476 1475 1475 1474 1474 1473 1473 1473
1500 1500 1501 1501 1500 1500 1500 1500 1499 1498 1498 1497 1496 1496 1495 1495 1494 1494 1493 1492 1491 1490 1489 1485 1484 1483 1482 1480 1479 1477 1476 1475 1474 1473 1472 1471 1470 1469 1468 1467 1467 1467 1466
1497 1497 1497 1497 1497 1497 1497 1496 1496 1495 1494 1494 1493 1492 1492 1491 1490 1490 1489 1488 1487 1486 1485 1482 1479 1478 1477 1476 1474 1473 1471 1470 1469 1468 1466 1465 1464 1463 1462 1461 1461 1460 1459
1494 1494 1494 1494 1494 1494 1493 1493 1492 1491 1491 1490 1489 1488 1488 1487 1486 1486 1485 1484 1483 1482 1480 1478 1476 1474 1473 1471 1470 1468 1466 1465 1464 1462 1461 1459 1458 1457 1456 1455 1454 1453 1452
1491 1491 1491 1491 1491 1490 1490 1489 1489 1488 1487 1486 1485 1485 1484 1483 1482 1481 1481 1480 1479 1478 1476 1475 1472 1470 1469 1467 1466 1464 1462 1460 1458 1458 1455 1454 1452 1451 1449 1448 1447 1446 1445
1487 1488 1488 1487 1487 1487 1486 1486 1485 1485 1484 1483 1482 1481 1480 1479 1478 1477 1476 1475 1475 1474 1472 1470 1468 1466 1464 1463 1462 1460 1458 1455 1453 1453 1450 1448 1447 1444 1443 1442 1440 1439 1437
1484 1484 1484 1484 1484 1483 1483 1482 1482 1481 1480 1479 1478 1477 1476 1475 1474 1473 1471 1470 1469 1468 1467 1466 1464 1462 1460 1458 1457 1455 1453 1451 1448 1447 1445 1441 1440 1438 1436 1435 1433 1432 1430
1481 1481 1481 1481 1480 1480 1479 1479 1478 1477 1476 1475 1474 1473 1472 1471 1470 1469 1467 1465 1464 1463 1462 1461 1459 1457 1455 1453 1452 1450 1448 1445 1443 1442 1440 1437 1434 1432 1430 1427 1426 1424 1423
1478 1478 1477 1477 1477 1476 1476 1475 1474 1473 1472 1471 1470 1469 1468 1467 1465 1464 1463 1461 1459 1458 1456 1454 1453 1451 1449 1447 1446 1445 1442 1440 1437 1435 1435 1432 1428 1425 1422 1420 1418 1417 1416
1474 1474 1474 1474 1473 1473 1472 1471 1471 1470 1468 1467 1466 1464 1463 1462 1461 1460 1458 1456 1454 1452 1451 1448 1447 1445 1443 1441 1440 1439 1437 1435 1433 1430 1428 1427 1423 1421 1416 1413 1413 1411 1409